World > North America > United States > Minnesota > Walden

Hourly Walden, MN Regional Weather

Feedback E-mail the Weather

Quick WX

Walden, MN Weather Maps

°F °C°F °C
Walden Weather Map
UTC Time: 8/19/2022, 11:00
Your Time:

Walden, MN Regional Weather

Expires:202208191100;;305754
ASUS43 KMPX 191010
RWRMN 
WEATHER ROUNDUP FOR MINNESOTA
NATIONAL WEATHER SERVICE TWIN CITIES/CHANHASSEN MN
500 AM CDT FRI AUG 19 2022


NOTE: "FAIR" INDICATES FEW OR NO CLOUDS BELOW 12,000 FEET WITH NO
SIGNIFICANT WEATHER AND/OR OBSTRUCTIONS TO VISIBILITY. N/A MEANS
CURRENT SKY AND/OR WEATHER CONDITIONS ARE NOT AVAILABLE.


MNZ033>034-036-042>043-049>051-058-059-191100-
   Central Minnesota     
  
CITY           SKY/WX    TMP DP  RH WIND       PRES   REMARKS
ST CLOUD       LGT RAIN  63  62  97 SW6       29.76S FOG              
SAUK CENTRE    LGT RAIN  63  63 100 CALM      29.76S                  
PAYNESVILLE    LGT RAIN  63  63 100 SW3       29.78S                  
AITKIN         DRIZZLE   63  63 100 CALM      29.74R                  
PINE RIVER     DRIZZLE   63  63 100 NE3       29.77F                  
BRAINERD       CLOUDY    65  63  93 NW3       29.72F                  
STAPLES        RAIN      63  63 100 CALM      29.74S                  
LONG PRAIRIE   DRIZZLE   61  59  94 CALM      29.76F                  
LITTLE FALLS   LGT RAIN  63  61  94 SW3       29.75S                  
CAMP RIPLEY    LGT RAIN  63  62  96 W5        29.73S                  
LITCHFIELD     MOCLDY    63  63 100 CALM      29.78F                  
BUFFALO        LGT RAIN  63  61  94 SW5       29.78S FOG              
HUTCHINSON     MOCLDY    61  61 100 CALM      29.81S                  
$$

SKY/WX - Weather  TMP - Temperature  DP - Dew Point  RH - Humidity
WIND - Wind Direction/Speed PRES - Barometric Pressure VSB - Visibility
WCI - Wind Chill Index E13G22 Wind - East Wind 13 mph/Gusts of 22 mph

Trending Headlines

Walden Radar Loop



Walden Quick Facts


National Two Day Weather Forecast


E-mail the Walden Weather Forecast

Voice your opinion or tell us about page issues...